Location: Poznań
(52.4062°N, 16.9234°E)
Time: 07:16:31
(UTC+02:00)

ISS - Visible Passes

Search period start: 27 May 2018 00:00
Search period end: 06 June 2018 00:00
Orbit: 402 x 407 km, 51.6° (Epoch: 27 May)

Date Brightness Start Highest point End Pass type
(mag) Time Alt. Az. Time Alt. Az. Time Alt. Az.
27 May -3.7 00:22:46 10° W 00:25:57 50° SSW 00:26:26 45° SSE visible
27 May -3.9 21:54:06 10° WSW 21:57:23 75° S 22:00:39 10° E visible
27 May -3.9 23:30:33 10° W 23:33:48 64° SSW 23:35:44 22° ESE visible
28 May -1.8 01:07:16 10° W 01:08:21 16° WSW 01:08:21 16° WSW visible
28 May -3.9 22:38:20 10° W 22:41:37 75° S 22:44:53 10° ESE visible
29 May -3.0 00:14:54 10° W 00:17:42 32° SSW 00:17:42 32° SSW visible
29 May -3.9 21:46:08 10° W 21:49:24 80° S 21:52:41 10° E visible
29 May -3.5 23:22:37 10° W 23:25:46 45° SSW 23:27:06 27° SE visible
30 May -3.7 22:30:21 10° W 22:33:36 59° SSW 22:36:31 12° ESE visible
31 May -2.1 00:07:11 10° W 00:09:09 19° SW 00:09:09 19° SW visible
31 May -2.7 23:14:42 10° W 23:17:35 29° SSW 23:18:35 24° S visible
01 Jun -3.2 22:22:21 10° W 22:25:27 40° SSW 22:28:03 13° SE visible
02 Jun -1.3 00:00:12 10° WSW 00:00:41 11° SW 00:00:41 11° SW visible
02 Jun -2.0 23:07:01 10° W 23:09:16 17° SW 23:10:11 16° SSW visible
03 Jun -2.4 22:14:25 10° W 22:17:11 25° SSW 22:19:41 11° SSE visible
05 Jun -1.6 22:06:47 10° WSW 22:08:45 15° SW 22:10:42 10° S visible
